Weather Roundup
Issued by NWS

Home | Current Version | Previous Version | Text Only | Print | Product List | Glossary On
Versions: 1 2 3 4 5 6 7 8 9 10 11 12 13 14 15 16 17 18 19 20 21 22 23 24 25 26 27 28 29 30 31 32 33 34 35 36 37 38 39 40 41 42 43 44 45 46 47 48 49 50
000
NZUS93 KARX 290510
HRRWXR

CURRENT HOURLY OBSERVATIONS ACROSS
MUCH OF THE UPPER MISSISSIPPI VALLEY
NATIONAL WEATHER SERVICE LA CROSSE WI
1200 AM CDT SAT APR 29 2017


...SOUTHEAST MINNESOTA...


CITY           SKY/WX    TMP DP  RH WIND       PRES   REMARKS
ROCHESTER      CLOUDY    38  31  76 NE8       30.08R WCI  32
ROCHESTER/MAYO FAIR      41  32  69 N5        30.09R
WINONA         MOCLDY    41  32  70 CALM      30.10R
AUSTIN         PTCLDY    39  30  70 NE3       30.08R
ALBERT LEA     CLOUDY    37  30  75 N5        30.09R WCI  34
DODGE CENTER   PTCLDY    37  30  75 N3        30.09R
PRESTON        CLOUDY    38  32  76 N8        30.08R WCI  33
OWATONNA       CLOUDY    39  30  70 CALM      30.10R
FARIBAULT      CLOUDY    36  34  93 CALM      30.10S
$$

...ELSEWHERE IN MINNESOTA...


CITY           SKY/WX    TMP DP  RH WIND       PRES   REMARKS
MINNEAPOLIS    CLOUDY    41  31  67 N6        30.11R
INTNL FALLS    CLEAR     25  21  85 CALM      30.16R
DULUTH         PTCLDY    34  25  69 N5        30.14R WCI  30
RED WING       PTCLDY    37  30  75 N5        30.10R WCI  34
REDWOOD FALLS  CLOUDY    41  24  51 N8        30.12R
MANKATO        CLOUDY    41  28  60 N8        30.11R
WORTHINGTON    NOT AVBL
FAIRMONT       CLOUDY    38  32  79 N6        30.11R WCI  33
$$

...SOUTHWEST WISCONSIN...


CITY           SKY/WX    TMP DP  RH WIND       PRES   REMARKS
LA CROSSE      MOCLDY    42  34  73 N5        30.09R
PRAIRIE DU CHI CLOUDY    43  40  89 CALM      30.08R
BOSCOBEL       CLOUDY    45  40  82 CALM      30.08R
LONE ROCK      CLOUDY    45  40  82 E3        30.07R
PLATTEVILLE    CLOUDY    45  42  90 NE8       30.05S
FORT MC COY    PTCLDY    38  36  90 CALM      30.10R
CAMP DOUGLAS   CLOUDY    44  34  69 N5        30.08R
MAUSTON-NEW LI CLOUDY    45  36  70 N3        30.07R
VIROQUA        CLOUDY    41  35  78 N3        30.07R
WIS DELLS      CLOUDY    43  38  83 CALM      30.07R
$$

...ELSEWHERE IN WISCONSIN...


CITY           SKY/WX    TMP DP  RH WIND       PRES   REMARKS
MILWAUKEE      CLOUDY    45  42  89 N5        30.05R
MADISON        CLOUDY    45  40  82 N5        30.06R
GREEN BAY      CLOUDY    45  33  63 N15       30.08R
EAU CLAIRE     CLEAR     34  30  85 CALM      30.09R
BLACK RVR FLS  FAIR      37  30  77 CALM      30.09R
MEDFORD        CLEAR     33  29  87 N3        30.08R
WAUSAU         CLOUDY    36  29  75 CALM      30.07S
WIS RAPIDS     CLOUDY    43  31  62 E7        30.10R
MARSHFIELD     CLOUDY    39  29  67 NE3       30.07R
RICE LAKE      PTCLDY    38  30  72 N7        30.12R WCI  33
$$

...NORTHEAST IOWA...


CITY           SKY/WX    TMP DP  RH WIND       PRES   REMARKS
WATERLOO       CLOUDY    42  38  85 N7        30.05S
DUBUQUE        CLOUDY    44  41  89 NE14      30.03F
DECORAH        CLOUDY    43  36  75 N5        30.07R
MASON CITY     CLOUDY    38  32  79 N6        30.10R WCI  33
CHARLES CITY   MOCLDY    41  37  87 N6        30.08R
OELWEIN        CLOUDY    43  41  93 NE10      30.06R
$$

...ELSEWHERE IN IOWA...


CITY           SKY/WX    TMP DP  RH WIND       PRES   REMARKS
DES MOINES     CLOUDY    45  39  79 NE10      30.05R
IOWA CITY      CLOUDY    45  42  89 NE14      30.01F
FORT DODGE     CLOUDY    43  34  70 N7        30.10R
MARSHALLTOWN   CLOUDY    43  39  86 NE10      30.05R
CEDAR RAPIDS   CLOUDY    44  43  96 NE9       30.01F
$$

...NORTHERN ILLINOIS...


CITY           SKY/WX    TMP DP  RH WIND       PRES   REMARKS
CHICAGO-OHARE  CLOUDY    47  39  74 NE15      30.02R
CHICAGO-MIDWAY CLOUDY    49  39  68 N14G24    30.02R
MOLINE         CLOUDY    49  45  86 VRB6      29.99R
ROCKFORD       DRIZZLE   47  44  90 NE10      30.04S
PEORIA         MOCLDY    57  54  89 N3        29.90F
$$

NOTE: "FAIR" INDICATES FEW OR NO CLOUDS BELOW 12,000 FEET WITH NO
SIGNIFICANT WEATHER AND/OR OBSTRUCTIONS TO VISIBILITY. WIND
SPEEDS ARE IN MILES-PER-HOUR.




USA.gov is the U.S. government's official web portal to all federal, state and local government web resources and services.